SWA1720 TNCM-KMCO

Flight info

Callsign SWA1720
Flight time 2h 56m
Altitude 34000
Route PJM B520 STT RTE6 SJU DCT ACONY Y280 SAPPO Y399 ZQA DCT OCTAL MUNGI1
Aircraft B38M/M-SADE2E3GHIJ4J7P2RWZ/LB1D1

Departure

Time 2026-05-08 01:22
Airport Princess Juliana International Airport (TNCM)

Arrival

Time 2026-05-08 04:18
Airport Orlando International Airport (KMCO)
Time Latitude Longitude Altitude Speed Heading
2026-05-08 00:53 18.04155 -63.11410 23 ft 0 kts 171°
2026-05-08 01:12 18.04157 -63.11410 23 ft 3 kts 171°
2026-05-08 01:13 18.04183 -63.11413 27 ft 4 kts 179°
2026-05-08 01:13 18.04210 -63.11411 24 ft 4 kts 195°
2026-05-08 01:13 18.04231 -63.11399 25 ft 4 kts 237°
2026-05-08 01:13 18.04235 -63.11390 26 ft 2 kts 261°
2026-05-08 01:17 18.04232 -63.11413 26 ft 7 kts 261°
2026-05-08 01:17 18.04210 -63.11491 25 ft 13 kts 238°
2026-05-08 01:17 18.04148 -63.11571 25 ft 15 kts 230°
2026-05-08 01:18 18.04085 -63.11652 23 ft 15 kts 232°
2026-05-08 01:18 18.04055 -63.11750 24 ft 13 kts 262°
2026-05-08 01:18 18.04043 -63.11834 23 ft 7 kts 262°
2026-05-08 01:18 18.04041 -63.11848 24 ft 0 kts 262°
2026-05-08 01:19 18.04039 -63.11862 26 ft 5 kts 262°
2026-05-08 01:20 18.04026 -63.11905 23 ft 7 kts 239°
2026-05-08 01:20 18.03997 -63.11947 24 ft 8 kts 233°
2026-05-08 01:20 18.03953 -63.11961 24 ft 7 kts 154°
2026-05-08 01:20 18.03946 -63.11924 24 ft 0 kts 81°
2026-05-08 01:21 18.03975 -63.11726 25 ft 64 kts 81°
2026-05-08 01:21 18.04075 -63.11026 24 ft 127 kts 81°
2026-05-08 01:21 18.04230 -63.09924 130 ft 166 kts 82°
2026-05-08 01:22 18.04293 -63.08712 758 ft 172 kts 96°
2026-05-08 01:22 18.03767 -63.07584 1470 ft 177 kts 137°
2026-05-08 01:22 18.02603 -63.07135 1980 ft 200 kts 179°
2026-05-08 01:22 18.01230 -63.07612 2459 ft 214 kts 212°
2026-05-08 01:23 18.00113 -63.08674 3022 ft 223 kts 224°
2026-05-08 01:23 17.99003 -63.09884 3505 ft 240 kts 225°
2026-05-08 01:23 17.97815 -63.11204 4023 ft 252 kts 227°
2026-05-08 01:23 17.96712 -63.12622 4832 ft 254 kts 240°
2026-05-08 01:24 17.96190 -63.14442 5235 ft 268 kts 271°
2026-05-08 01:24 17.96373 -63.16359 6126 ft 261 kts 281°
2026-05-08 01:24 17.96712 -63.18288 6659 ft 274 kts 283°
2026-05-08 01:24 17.96979 -63.19585 7093 ft 276 kts 288°
2026-05-08 01:25 17.97865 -63.22202 7740 ft 290 kts 293°
2026-05-08 01:25 17.98559 -63.24157 8515 ft 290 kts 292°
2026-05-08 01:25 17.99259 -63.26158 9216 ft 293 kts 292°
2026-05-08 01:25 17.99958 -63.28178 9937 ft 295 kts 292°
2026-05-08 01:26 18.00663 -63.30229 10470 ft 305 kts 292°
2026-05-08 01:26 18.01161 -63.31679 10639 ft 318 kts 292°
2026-05-08 01:26 18.01933 -63.33934 10842 ft 338 kts 291°
2026-05-08 01:26 18.02737 -63.36284 11025 ft 355 kts 291°
2026-05-08 01:27 18.03585 -63.38765 11350 ft 365 kts 291°
2026-05-08 01:27 18.04442 -63.41274 12030 ft 365 kts 291°
2026-05-08 01:27 18.05303 -63.43796 12637 ft 368 kts 291°
2026-05-08 01:27 18.06171 -63.46340 13299 ft 370 kts 291°
2026-05-08 01:28 18.07042 -63.48893 13941 ft 373 kts 291°
2026-05-08 01:28 18.07922 -63.51472 14513 ft 376 kts 291°
2026-05-08 01:28 18.08807 -63.54070 15063 ft 380 kts 291°
2026-05-08 01:28 18.09703 -63.56701 15627 ft 383 kts 291°
2026-05-08 01:29 18.10606 -63.59354 16164 ft 387 kts 291°
2026-05-08 01:29 18.11516 -63.62027 16710 ft 390 kts 291°
2026-05-08 01:29 18.12433 -63.64721 17223 ft 394 kts 291°
2026-05-08 01:29 18.13227 -63.67492 17701 ft 399 kts 282°
2026-05-08 01:30 18.13713 -63.70374 18218 ft 402 kts 282°
2026-05-08 01:30 18.14211 -63.73285 18641 ft 406 kts 282°
2026-05-08 01:30 18.14709 -63.76220 19021 ft 410 kts 282°
2026-05-08 01:30 18.15209 -63.79188 19401 ft 414 kts 282°
2026-05-08 01:31 18.15715 -63.82183 19782 ft 418 kts 282°
2026-05-08 01:31 18.16217 -63.85166 20149 ft 422 kts 282°
2026-05-08 01:31 18.16731 -63.88221 20519 ft 426 kts 282°
2026-05-08 01:31 18.17248 -63.91299 20881 ft 430 kts 282°
2026-05-08 01:32 18.17770 -63.94403 21253 ft 433 kts 282°
2026-05-08 01:32 18.18296 -63.97542 21602 ft 437 kts 282°
2026-05-08 01:32 18.18826 -64.00702 21953 ft 441 kts 282°
2026-05-08 01:32 18.19359 -64.03892 22311 ft 444 kts 282°
2026-05-08 01:33 18.19896 -64.07102 22670 ft 448 kts 282°
2026-05-08 01:33 18.20438 -64.10342 23001 ft 451 kts 282°
2026-05-08 01:33 18.20982 -64.13603 23339 ft 455 kts 282°
2026-05-08 01:33 18.21530 -64.16894 23666 ft 458 kts 283°
2026-05-08 01:34 18.22081 -64.20201 23976 ft 460 kts 283°
2026-05-08 01:34 18.22627 -64.23487 24304 ft 461 kts 283°
2026-05-08 01:34 18.23188 -64.26858 24636 ft 463 kts 283°
2026-05-08 01:34 18.23736 -64.30163 24960 ft 464 kts 283°
2026-05-08 01:35 18.24291 -64.33509 25296 ft 466 kts 283°
2026-05-08 01:35 18.24848 -64.36876 25631 ft 467 kts 283°
2026-05-08 01:35 18.25406 -64.40244 25957 ft 469 kts 283°
2026-05-08 01:35 18.25965 -64.43631 26273 ft 470 kts 283°
2026-05-08 01:36 18.26526 -64.47026 26586 ft 472 kts 283°
2026-05-08 01:36 18.27089 -64.50441 26906 ft 474 kts 283°
2026-05-08 01:36 18.27652 -64.53860 27213 ft 475 kts 283°
2026-05-08 01:36 18.28217 -64.57298 27518 ft 477 kts 284°
2026-05-08 01:37 18.28783 -64.60743 27821 ft 479 kts 284°
2026-05-08 01:37 18.29352 -64.64207 28111 ft 481 kts 284°
2026-05-08 01:37 18.29921 -64.67683 28400 ft 483 kts 284°
2026-05-08 01:37 18.30492 -64.71171 28693 ft 484 kts 284°
2026-05-08 01:38 18.31065 -64.74678 28973 ft 486 kts 284°
2026-05-08 01:38 18.31632 -64.78152 29231 ft 488 kts 284°
2026-05-08 01:38 18.32215 -64.81724 29511 ft 490 kts 284°
2026-05-08 01:38 18.32784 -64.85218 29779 ft 491 kts 284°
2026-05-08 01:39 18.33362 -64.88773 30092 ft 492 kts 284°
2026-05-08 01:39 18.33940 -64.92326 30400 ft 492 kts 284°
2026-05-08 01:39 18.34515 -64.95869 30708 ft 492 kts 284°
2026-05-08 01:39 18.35069 -64.99425 30995 ft 493 kts 281°
2026-05-08 01:40 18.35047 -65.03063 31308 ft 502 kts 266°
2026-05-08 01:40 18.34222 -65.06659 31577 ft 509 kts 256°
2026-05-08 01:40 18.33189 -65.10216 31829 ft 510 kts 257°
2026-05-08 01:40 18.32139 -65.13792 32107 ft 510 kts 259°
2026-05-08 01:41 18.31573 -65.17424 32391 ft 499 kts 275°
2026-05-08 01:41 18.32001 -65.20983 32715 ft 485 kts 290°
2026-05-08 01:41 18.32678 -65.24481 32910 ft 492 kts 284°
2026-05-08 01:41 18.33153 -65.28054 33215 ft 492 kts 283°
2026-05-08 01:42 18.33604 -65.31629 33518 ft 493 kts 283°
2026-05-08 01:42 18.34101 -65.35199 33819 ft 489 kts 288°
2026-05-08 01:42 18.35083 -65.38527 34127 ft 474 kts 303°
2026-05-08 01:42 18.36760 -65.41441 34434 ft 463 kts 311°
2026-05-08 01:43 18.38441 -65.44352 34692 ft 466 kts 307°
2026-05-08 01:43 18.40046 -65.47311 34997 ft 465 kts 306°
2026-05-08 01:43 18.41632 -65.50276 35299 ft 464 kts 306°
2026-05-08 01:43 18.43202 -65.53237 35605 ft 462 kts 306°
2026-05-08 01:44 18.44763 -65.56189 35909 ft 460 kts 306°
2026-05-08 01:44 18.46321 -65.59139 36094 ft 459 kts 306°
2026-05-08 01:44 18.47871 -65.62077 36091 ft 457 kts 306°
2026-05-08 01:45 18.50943 -65.67904 36084 ft 455 kts 306°
2026-05-08 01:45 18.54016 -65.73739 36087 ft 455 kts 306°
2026-05-08 01:46 18.57085 -65.79572 36086 ft 454 kts 306°
2026-05-08 01:46 18.60150 -65.85402 36088 ft 454 kts 306°
2026-05-08 01:47 18.63189 -65.91190 36086 ft 454 kts 306°
2026-05-08 01:47 18.66244 -65.97014 36086 ft 454 kts 306°
2026-05-08 01:48 18.70825 -66.05756 36081 ft 453 kts 306°
2026-05-08 01:48 18.73879 -66.11592 36082 ft 453 kts 306°
2026-05-08 01:49 18.76929 -66.17424 36080 ft 454 kts 306°
2026-05-08 01:49 18.79978 -66.23261 36076 ft 454 kts 306°
2026-05-08 01:50 18.83023 -66.29095 36077 ft 454 kts 306°
2026-05-08 01:50 18.86048 -66.34897 36079 ft 454 kts 306°
2026-05-08 01:51 18.89093 -66.40742 36080 ft 455 kts 306°
2026-05-08 01:51 18.92146 -66.46600 36081 ft 454 kts 307°
2026-05-08 01:52 18.93967 -66.49249 36087 ft 441 kts 318°
2026-05-08 01:52 18.95951 -66.51734 36076 ft 444 kts 316°
2026-05-08 01:52 18.99918 -66.56746 36082 ft 444 kts 316°
2026-05-08 01:53 19.03895 -66.61741 36083 ft 444 kts 316°
2026-05-08 01:53 19.07885 -66.66752 36085 ft 444 kts 316°
2026-05-08 01:54 19.11869 -66.71762 36084 ft 445 kts 316°
2026-05-08 01:54 19.15823 -66.76737 36087 ft 445 kts 316°
2026-05-08 01:55 19.19807 -66.81753 36088 ft 445 kts 316°
2026-05-08 01:55 19.23788 -66.86772 36086 ft 445 kts 316°
2026-05-08 01:56 19.27768 -66.91792 36084 ft 445 kts 316°
2026-05-08 01:56 19.31743 -66.96810 36088 ft 445 kts 316°
2026-05-08 01:57 19.35714 -67.01827 36090 ft 445 kts 316°
2026-05-08 01:57 19.39689 -67.06853 36094 ft 445 kts 315°
2026-05-08 01:58 19.43631 -67.11842 36093 ft 444 kts 315°
2026-05-08 01:58 19.47596 -67.16865 36090 ft 444 kts 315°
2026-05-08 01:59 19.51563 -67.21893 36088 ft 444 kts 315°
2026-05-08 01:59 19.55536 -67.26935 36096 ft 444 kts 315°
2026-05-08 02:00 19.59503 -67.31972 36093 ft 444 kts 315°
2026-05-08 02:00 19.63461 -67.37002 36086 ft 444 kts 315°
2026-05-08 02:01 19.67421 -67.42040 36095 ft 444 kts 315°
2026-05-08 02:01 19.71354 -67.47047 36103 ft 444 kts 315°
2026-05-08 02:02 19.75303 -67.52079 36100 ft 444 kts 315°
2026-05-08 02:02 19.79256 -67.57120 36100 ft 444 kts 315°
2026-05-08 02:03 19.83209 -67.62165 36091 ft 444 kts 315°
2026-05-08 02:03 19.87157 -67.67208 36095 ft 443 kts 315°
2026-05-08 02:04 19.91097 -67.72246 36096 ft 443 kts 315°
2026-05-08 02:04 19.95039 -67.77290 36101 ft 443 kts 314°
2026-05-08 02:05 19.98953 -67.82303 36102 ft 443 kts 314°
2026-05-08 02:05 20.02888 -67.87347 36091 ft 443 kts 314°
2026-05-08 02:06 20.06821 -67.92392 36093 ft 443 kts 314°
2026-05-08 02:06 20.10752 -67.97440 36098 ft 443 kts 314°
2026-05-08 02:07 20.14681 -68.02489 36101 ft 443 kts 314°
2026-05-08 02:07 20.18607 -68.07539 36104 ft 443 kts 314°
2026-05-08 02:08 20.22532 -68.12592 36100 ft 442 kts 314°
2026-05-08 02:08 20.26455 -68.17647 36097 ft 442 kts 313°
2026-05-08 02:09 20.30381 -68.22710 36097 ft 442 kts 313°
2026-05-08 02:09 20.34276 -68.27736 36097 ft 442 kts 313°
2026-05-08 02:10 20.38191 -68.32792 36098 ft 442 kts 313°
2026-05-08 02:10 20.42107 -68.37856 36100 ft 443 kts 313°
2026-05-08 02:11 20.45065 -68.42388 36115 ft 446 kts 304°
2026-05-08 02:11 20.48209 -68.48056 36099 ft 447 kts 304°
2026-05-08 02:12 20.51365 -68.53774 36098 ft 447 kts 304°
2026-05-08 02:12 20.54521 -68.59502 36097 ft 447 kts 304°
2026-05-08 02:13 20.57675 -68.65234 36102 ft 447 kts 304°
2026-05-08 02:13 20.60825 -68.70963 36099 ft 447 kts 304°
2026-05-08 02:14 20.63955 -68.76663 36095 ft 447 kts 304°
2026-05-08 02:14 20.67099 -68.82393 36096 ft 447 kts 304°
2026-05-08 02:15 20.70246 -68.88133 36095 ft 447 kts 304°
2026-05-08 02:15 20.73384 -68.93863 36096 ft 447 kts 304°
2026-05-08 02:16 20.76517 -68.99592 36097 ft 446 kts 304°
2026-05-08 02:16 20.79653 -69.05330 36095 ft 446 kts 303°
2026-05-08 02:17 20.82778 -69.11055 36095 ft 446 kts 303°
2026-05-08 02:17 20.85876 -69.16735 36095 ft 445 kts 303°
2026-05-08 02:18 20.88994 -69.22459 36097 ft 445 kts 303°
2026-05-08 02:18 20.92109 -69.28182 36094 ft 445 kts 303°
2026-05-08 02:19 20.95219 -69.33903 36092 ft 445 kts 303°
2026-05-08 02:19 20.98327 -69.39625 36096 ft 445 kts 303°
2026-05-08 02:20 21.01436 -69.45355 36097 ft 445 kts 303°
2026-05-08 02:20 21.04541 -69.51085 36093 ft 445 kts 303°
2026-05-08 02:21 21.07647 -69.56822 36094 ft 445 kts 303°
2026-05-08 02:21 21.10751 -69.62561 36096 ft 445 kts 303°
2026-05-08 02:22 21.13854 -69.68304 36093 ft 445 kts 303°
2026-05-08 02:22 21.16937 -69.74015 36093 ft 445 kts 303°
2026-05-08 02:23 21.20038 -69.79767 36095 ft 445 kts 303°
2026-05-08 02:23 21.23137 -69.85520 36092 ft 445 kts 303°
2026-05-08 02:24 21.26236 -69.91280 36091 ft 446 kts 303°
2026-05-08 02:24 21.29331 -69.97039 36094 ft 446 kts 303°
2026-05-08 02:25 21.32426 -70.02803 36092 ft 446 kts 303°
2026-05-08 02:25 21.35519 -70.08569 36090 ft 446 kts 303°
2026-05-08 02:26 21.38599 -70.14318 36092 ft 446 kts 303°
2026-05-08 02:26 21.41695 -70.20102 36090 ft 446 kts 303°
2026-05-08 02:27 21.44787 -70.25887 36090 ft 447 kts 303°
2026-05-08 02:27 21.47860 -70.31639 36093 ft 447 kts 303°
2026-05-08 02:28 21.50950 -70.37431 36092 ft 447 kts 303°
2026-05-08 02:28 21.54041 -70.43230 36091 ft 447 kts 303°
2026-05-08 02:29 21.57130 -70.49034 36095 ft 447 kts 303°
2026-05-08 02:29 21.60223 -70.54849 36091 ft 447 kts 303°
2026-05-08 02:30 21.63310 -70.60661 36088 ft 448 kts 303°
2026-05-08 02:30 21.66378 -70.66442 36093 ft 448 kts 303°
2026-05-08 02:31 21.69465 -70.72267 36091 ft 448 kts 303°
2026-05-08 02:31 21.72548 -70.78088 36088 ft 448 kts 302°
2026-05-08 02:32 21.75629 -70.83914 36092 ft 448 kts 302°
2026-05-08 02:32 21.78708 -70.89742 36088 ft 448 kts 302°
2026-05-08 02:33 21.81788 -70.95578 36092 ft 448 kts 302°
2026-05-08 02:33 21.84865 -71.01414 36085 ft 448 kts 302°
2026-05-08 02:34 21.87938 -71.07251 36087 ft 448 kts 302°
2026-05-08 02:34 21.90991 -71.13054 36085 ft 448 kts 302°
2026-05-08 02:35 21.94060 -71.18894 36089 ft 448 kts 302°
2026-05-08 02:35 21.97131 -71.24746 36096 ft 448 kts 302°
2026-05-08 02:36 22.00198 -71.30595 36096 ft 448 kts 302°
2026-05-08 02:36 22.03260 -71.36442 36088 ft 448 kts 302°
2026-05-08 02:37 22.06324 -71.42300 36093 ft 448 kts 302°
2026-05-08 02:37 22.09381 -71.48149 36094 ft 448 kts 302°
2026-05-08 02:38 22.12417 -71.53966 36088 ft 448 kts 302°
2026-05-08 02:38 22.15468 -71.59818 36090 ft 448 kts 302°
2026-05-08 02:39 22.18525 -71.65686 36089 ft 448 kts 302°
2026-05-08 02:39 22.21577 -71.71555 36096 ft 448 kts 302°
2026-05-08 02:40 22.24632 -71.77433 36092 ft 449 kts 302°
2026-05-08 02:40 22.27687 -71.83320 36091 ft 449 kts 302°
2026-05-08 02:41 22.30741 -71.89210 36092 ft 449 kts 302°
2026-05-08 02:41 22.33773 -71.95063 36091 ft 449 kts 302°
2026-05-08 02:42 22.36820 -72.00954 36091 ft 449 kts 302°
2026-05-08 02:42 22.39872 -72.06863 36091 ft 450 kts 302°
2026-05-08 02:43 22.42919 -72.12765 36094 ft 450 kts 302°
2026-05-08 02:43 22.45969 -72.18681 36091 ft 450 kts 301°
2026-05-08 02:44 22.49013 -72.24592 36091 ft 450 kts 301°
2026-05-08 02:44 22.52061 -72.30519 36091 ft 451 kts 301°
2026-05-08 02:45 22.55106 -72.36445 36092 ft 451 kts 301°
2026-05-08 02:45 22.58153 -72.42381 36092 ft 451 kts 301°
2026-05-08 02:46 22.61197 -72.48317 36090 ft 451 kts 301°
2026-05-08 02:46 22.64237 -72.54254 36090 ft 451 kts 301°
2026-05-08 02:47 22.67277 -72.60194 36092 ft 451 kts 301°
2026-05-08 02:47 22.70306 -72.66122 36091 ft 452 kts 301°
2026-05-08 02:48 22.73348 -72.72083 36090 ft 452 kts 301°
2026-05-08 02:48 22.76378 -72.78049 36091 ft 452 kts 301°
2026-05-08 02:49 22.79405 -72.84013 36090 ft 452 kts 301°
2026-05-08 02:49 22.82435 -72.89985 36091 ft 452 kts 301°
2026-05-08 02:50 22.85440 -72.95915 36091 ft 452 kts 301°
2026-05-08 02:50 22.88461 -73.01883 36092 ft 452 kts 300°
2026-05-08 02:51 22.91487 -73.07869 36091 ft 452 kts 300°
2026-05-08 02:51 22.94505 -73.13846 36087 ft 451 kts 300°
2026-05-08 02:52 22.97520 -73.19824 36088 ft 451 kts 300°
2026-05-08 02:52 23.00533 -73.25803 36087 ft 451 kts 300°
2026-05-08 02:53 23.03541 -73.31783 36089 ft 451 kts 300°
2026-05-08 02:53 23.06548 -73.37767 36084 ft 451 kts 300°
2026-05-08 02:54 23.09044 -73.42737 36088 ft 451 kts 300°
2026-05-08 02:54 23.12532 -73.49694 36088 ft 451 kts 300°
2026-05-08 02:55 23.16522 -73.57663 36088 ft 451 kts 300°
2026-05-08 02:56 23.19514 -73.63648 36091 ft 450 kts 300°
2026-05-08 02:56 23.22504 -73.69635 36091 ft 450 kts 300°
2026-05-08 02:57 23.25494 -73.75630 36089 ft 450 kts 300°
2026-05-08 02:57 23.28481 -73.81627 36088 ft 450 kts 300°
2026-05-08 02:58 23.31445 -73.87585 36087 ft 450 kts 300°
2026-05-08 02:58 23.34421 -73.93573 36089 ft 450 kts 300°
2026-05-08 02:59 23.37395 -73.99564 36088 ft 450 kts 300°
2026-05-08 02:59 23.40367 -74.05558 36091 ft 449 kts 299°
2026-05-08 03:00 23.43331 -74.11546 36089 ft 449 kts 299°
2026-05-08 03:00 23.46294 -74.17536 36088 ft 449 kts 299°
2026-05-08 03:01 23.49249 -74.23519 36087 ft 448 kts 299°
2026-05-08 03:01 23.52202 -74.29506 36091 ft 448 kts 299°
2026-05-08 03:02 23.55132 -74.35452 36091 ft 448 kts 299°
2026-05-08 03:02 23.58075 -74.41432 36090 ft 448 kts 299°
2026-05-08 03:03 23.61018 -74.47419 36088 ft 447 kts 299°
2026-05-08 03:03 23.63954 -74.53401 36087 ft 447 kts 299°
2026-05-08 03:04 23.66885 -74.59377 36090 ft 447 kts 299°
2026-05-08 03:04 23.69814 -74.65358 36090 ft 446 kts 299°
2026-05-08 03:05 23.72737 -74.71336 36088 ft 446 kts 299°
2026-05-08 03:05 23.75653 -74.77304 36090 ft 446 kts 299°
2026-05-08 03:06 23.78570 -74.83284 36084 ft 446 kts 299°
2026-05-08 03:06 23.81462 -74.89217 36085 ft 445 kts 299°
2026-05-08 03:07 23.84370 -74.95193 36089 ft 445 kts 299°
2026-05-08 03:07 23.87277 -75.01173 36088 ft 444 kts 299°
2026-05-08 03:08 23.90175 -75.07142 36088 ft 444 kts 299°
2026-05-08 03:08 23.93066 -75.13104 36087 ft 444 kts 299°
2026-05-08 03:09 23.95937 -75.19034 36087 ft 444 kts 299°
2026-05-08 03:09 23.98826 -75.25005 36089 ft 444 kts 299°
2026-05-08 03:10 24.01713 -75.30983 36086 ft 444 kts 298°
2026-05-08 03:10 24.04599 -75.36964 36085 ft 444 kts 298°
2026-05-08 03:11 24.07478 -75.42939 36084 ft 444 kts 298°
2026-05-08 03:11 24.10356 -75.48919 36084 ft 443 kts 298°
2026-05-08 03:12 24.13229 -75.54896 36085 ft 444 kts 298°
2026-05-08 03:12 24.16099 -75.60875 36081 ft 443 kts 298°
2026-05-08 03:13 24.18949 -75.66818 36086 ft 443 kts 298°
2026-05-08 03:13 24.21820 -75.72814 36083 ft 443 kts 298°
2026-05-08 03:14 24.24683 -75.78800 36082 ft 443 kts 298°
2026-05-08 03:14 24.27524 -75.84748 36081 ft 443 kts 298°
2026-05-08 03:15 24.30378 -75.90730 36080 ft 443 kts 298°
2026-05-08 03:15 24.33230 -75.96718 36081 ft 443 kts 298°
2026-05-08 03:16 24.36083 -76.02713 36080 ft 442 kts 298°
2026-05-08 03:16 24.38928 -76.08700 36084 ft 442 kts 298°
2026-05-08 03:17 24.41770 -76.14687 36083 ft 442 kts 298°
2026-05-08 03:17 24.44591 -76.20640 36081 ft 442 kts 298°
2026-05-08 03:18 24.47430 -76.26636 36077 ft 442 kts 298°
2026-05-08 03:18 24.50263 -76.32628 36078 ft 442 kts 297°
2026-05-08 03:19 24.53095 -76.38626 36080 ft 442 kts 297°
2026-05-08 03:19 24.55924 -76.44625 36077 ft 442 kts 297°
2026-05-08 03:20 24.58750 -76.50625 36079 ft 442 kts 297°
2026-05-08 03:20 24.61577 -76.56636 36078 ft 442 kts 297°
2026-05-08 03:21 24.64398 -76.62641 36079 ft 442 kts 297°
2026-05-08 03:21 24.67215 -76.68646 36077 ft 442 kts 297°
2026-05-08 03:22 24.70016 -76.74623 36075 ft 442 kts 297°
2026-05-08 03:22 24.72830 -76.80638 36077 ft 442 kts 297°
2026-05-08 03:23 24.75643 -76.86658 36076 ft 442 kts 297°
2026-05-08 03:23 24.78456 -76.92685 36075 ft 442 kts 297°
2026-05-08 03:24 24.81262 -76.98705 36074 ft 442 kts 297°
2026-05-08 03:24 24.84069 -77.04732 36073 ft 442 kts 297°
2026-05-08 03:25 24.86794 -77.10591 36072 ft 442 kts 297°
2026-05-08 03:25 24.89592 -77.16615 36075 ft 442 kts 297°
2026-05-08 03:26 24.92389 -77.22644 36076 ft 442 kts 297°
2026-05-08 03:26 24.95185 -77.28681 36078 ft 442 kts 297°
2026-05-08 03:27 24.97977 -77.34713 36079 ft 442 kts 297°
2026-05-08 03:27 25.00767 -77.40754 36084 ft 442 kts 297°
2026-05-08 03:28 25.03422 -77.46813 36085 ft 441 kts 295°
2026-05-08 03:28 25.05997 -77.52969 36080 ft 441 kts 295°
2026-05-08 03:29 25.08581 -77.59119 36082 ft 441 kts 295°
2026-05-08 03:29 25.11162 -77.65266 36078 ft 441 kts 295°
2026-05-08 03:30 25.15013 -77.74455 36075 ft 441 kts 295°
2026-05-08 03:31 25.20155 -77.86754 36071 ft 440 kts 295°
2026-05-08 03:32 25.23998 -77.95968 36068 ft 440 kts 294°
2026-05-08 03:32 25.26560 -78.02122 36069 ft 440 kts 294°
2026-05-08 03:33 25.29104 -78.08242 36063 ft 440 kts 294°
2026-05-08 03:33 25.31656 -78.14388 36065 ft 440 kts 294°
2026-05-08 03:34 25.34203 -78.20533 36064 ft 440 kts 294°
2026-05-08 03:34 25.36748 -78.26680 36065 ft 440 kts 294°
2026-05-08 03:35 25.39289 -78.32828 36063 ft 439 kts 294°
2026-05-08 03:35 25.41827 -78.38975 36064 ft 439 kts 294°
2026-05-08 03:36 25.44359 -78.45119 36058 ft 439 kts 294°
2026-05-08 03:36 25.46889 -78.51265 36059 ft 438 kts 294°
2026-05-08 03:37 25.49411 -78.57400 36059 ft 437 kts 294°
2026-05-08 03:37 25.51929 -78.63538 36060 ft 437 kts 294°
2026-05-08 03:38 25.54429 -78.69636 36059 ft 437 kts 294°
2026-05-08 03:38 25.56938 -78.75766 36058 ft 437 kts 294°
2026-05-08 03:39 25.59442 -78.81893 36057 ft 436 kts 294°
2026-05-08 03:39 25.61940 -78.88015 36054 ft 436 kts 294°
2026-05-08 03:40 25.64436 -78.94142 36062 ft 436 kts 294°
2026-05-08 03:40 25.66930 -79.00270 36059 ft 435 kts 294°
2026-05-08 03:41 25.69401 -79.06352 36058 ft 435 kts 294°
2026-05-08 03:41 25.71481 -79.11477 36060 ft 435 kts 294°
2026-05-08 03:42 25.74364 -79.18591 36059 ft 435 kts 294°
2026-05-08 03:42 25.76842 -79.24718 36062 ft 434 kts 294°
2026-05-08 03:42 25.78080 -79.27781 35947 ft 434 kts 294°
2026-05-08 03:43 25.78896 -79.29800 35800 ft 433 kts 294°
2026-05-08 03:43 25.80124 -79.32844 35584 ft 431 kts 294°
2026-05-08 03:43 25.81349 -79.35881 35360 ft 430 kts 294°
2026-05-08 03:43 25.82564 -79.38896 35142 ft 428 kts 294°
2026-05-08 03:44 25.83776 -79.41905 34928 ft 426 kts 294°
2026-05-08 03:44 25.84981 -79.44898 34716 ft 424 kts 294°
2026-05-08 03:44 25.86182 -79.47885 34500 ft 422 kts 294°
2026-05-08 03:44 25.87375 -79.50853 34294 ft 420 kts 294°
2026-05-08 03:45 25.88564 -79.53812 34089 ft 419 kts 293°
2026-05-08 03:45 25.89748 -79.56764 33848 ft 417 kts 293°
2026-05-08 03:45 25.90926 -79.59698 33613 ft 415 kts 293°
2026-05-08 03:45 25.92101 -79.62631 33375 ft 415 kts 293°
2026-05-08 03:46 25.93272 -79.65556 33140 ft 415 kts 293°
2026-05-08 03:46 25.94450 -79.68500 32867 ft 416 kts 293°
2026-05-08 03:46 25.95611 -79.71403 32599 ft 416 kts 293°
2026-05-08 03:46 25.96787 -79.74345 32327 ft 417 kts 293°
2026-05-08 03:47 25.97965 -79.77294 32049 ft 418 kts 293°
2026-05-08 03:47 25.99143 -79.80247 31780 ft 419 kts 293°
2026-05-08 03:47 26.00324 -79.83207 31511 ft 419 kts 293°
2026-05-08 03:47 26.01507 -79.86177 31245 ft 420 kts 293°
2026-05-08 03:48 26.02691 -79.89149 30985 ft 421 kts 293°
2026-05-08 03:48 26.03875 -79.92124 30725 ft 421 kts 293°
2026-05-08 03:48 26.05061 -79.95104 30454 ft 422 kts 293°
2026-05-08 03:48 26.06248 -79.98090 30213 ft 422 kts 292°
2026-05-08 03:49 26.07436 -80.01080 29961 ft 423 kts 292°
2026-05-08 03:49 26.08623 -80.04071 29716 ft 422 kts 292°
2026-05-08 03:49 26.09803 -80.07045 29472 ft 420 kts 292°
2026-05-08 03:49 26.10967 -80.09980 29232 ft 418 kts 292°
2026-05-08 03:50 26.12143 -80.12948 28998 ft 416 kts 292°
2026-05-08 03:50 26.13316 -80.15885 28764 ft 415 kts 295°
2026-05-08 03:50 26.14884 -80.18568 28516 ft 415 kts 309°
2026-05-08 03:50 26.17039 -80.20721 28277 ft 419 kts 322°
2026-05-08 03:51 26.19564 -80.22361 28052 ft 421 kts 328°
2026-05-08 03:51 26.22159 -80.23867 27813 ft 420 kts 329°
2026-05-08 03:51 26.24782 -80.25310 27577 ft 419 kts 330°
2026-05-08 03:51 26.27406 -80.26717 27345 ft 418 kts 330°
2026-05-08 03:52 26.30030 -80.28103 27110 ft 416 kts 330°
2026-05-08 03:52 26.32646 -80.29474 26878 ft 415 kts 330°
2026-05-08 03:52 26.35254 -80.30837 26651 ft 413 kts 330°
2026-05-08 03:52 26.37812 -80.32172 26439 ft 409 kts 330°
2026-05-08 03:53 26.40372 -80.33508 26227 ft 402 kts 330°
2026-05-08 03:53 26.42897 -80.34827 26031 ft 399 kts 330°
2026-05-08 03:53 26.45402 -80.36136 25826 ft 397 kts 330°
2026-05-08 03:53 26.47902 -80.37443 25628 ft 396 kts 330°
2026-05-08 03:54 26.50393 -80.38746 25430 ft 395 kts 330°
2026-05-08 03:54 26.52884 -80.40049 25237 ft 393 kts 330°
2026-05-08 03:54 26.55358 -80.41344 25045 ft 392 kts 330°
2026-05-08 03:54 26.57813 -80.42630 24873 ft 384 kts 330°
2026-05-08 03:55 26.60180 -80.43869 24709 ft 378 kts 330°
2026-05-08 03:55 26.62618 -80.45046 24534 ft 378 kts 336°
2026-05-08 03:55 26.65061 -80.46018 24370 ft 376 kts 335°
2026-05-08 03:55 26.67519 -80.47019 24206 ft 375 kts 335°
2026-05-08 03:56 26.69961 -80.48025 24035 ft 374 kts 335°
2026-05-08 03:56 26.72401 -80.49036 23867 ft 373 kts 335°
2026-05-08 03:56 26.74831 -80.50045 23704 ft 372 kts 335°
2026-05-08 03:56 26.77247 -80.51050 23535 ft 370 kts 335°
2026-05-08 03:57 26.79659 -80.52053 23334 ft 369 kts 335°
2026-05-08 03:57 26.82067 -80.53056 23148 ft 368 kts 335°
2026-05-08 03:57 26.84466 -80.54055 22942 ft 367 kts 335°
2026-05-08 03:57 26.86860 -80.55053 22750 ft 366 kts 335°
2026-05-08 03:58 26.89245 -80.56047 22566 ft 365 kts 335°
2026-05-08 03:58 26.91625 -80.57040 22392 ft 366 kts 335°
2026-05-08 03:58 26.94012 -80.58036 22221 ft 366 kts 335°
2026-05-08 03:58 26.96403 -80.59035 22052 ft 366 kts 335°
2026-05-08 03:59 26.98794 -80.60033 21890 ft 367 kts 335°
2026-05-08 03:59 27.01184 -80.61032 21727 ft 367 kts 335°
2026-05-08 03:59 27.03581 -80.62035 21566 ft 368 kts 335°
2026-05-08 03:59 27.05980 -80.63038 21410 ft 368 kts 335°
2026-05-08 04:00 27.08380 -80.64042 21241 ft 369 kts 335°
2026-05-08 04:00 27.10781 -80.65047 21075 ft 369 kts 335°
2026-05-08 04:00 27.13188 -80.66054 20908 ft 369 kts 335°
2026-05-08 04:00 27.15601 -80.67065 20730 ft 370 kts 335°
2026-05-08 04:01 27.18015 -80.68077 20556 ft 370 kts 335°
2026-05-08 04:01 27.20400 -80.69076 20397 ft 371 kts 335°
2026-05-08 04:01 27.23016 -80.70173 20215 ft 371 kts 335°
2026-05-08 04:01 27.25438 -80.71190 20057 ft 372 kts 335°
2026-05-08 04:02 27.27868 -80.72210 19887 ft 373 kts 335°
2026-05-08 04:02 27.30301 -80.73232 19718 ft 373 kts 335°
2026-05-08 04:02 27.32732 -80.74253 19538 ft 373 kts 335°
2026-05-08 04:02 27.35171 -80.75278 19366 ft 374 kts 335°
2026-05-08 04:03 27.37607 -80.76315 19186 ft 374 kts 335°
2026-05-08 04:03 27.42478 -80.78423 18845 ft 375 kts 335°
2026-05-08 04:03 27.44918 -80.79478 18672 ft 375 kts 335°
2026-05-08 04:04 27.47356 -80.80532 18496 ft 376 kts 335°
2026-05-08 04:04 27.49798 -80.81589 18323 ft 376 kts 335°
2026-05-08 04:04 27.52214 -80.82634 18138 ft 377 kts 335°
2026-05-08 04:04 27.54663 -80.83695 17903 ft 374 kts 335°
2026-05-08 04:05 27.57035 -80.84805 17670 ft 364 kts 331°
2026-05-08 04:05 27.59298 -80.86011 17431 ft 356 kts 331°
2026-05-08 04:05 27.61526 -80.87184 17192 ft 352 kts 332°
2026-05-08 04:05 27.63748 -80.88348 16952 ft 352 kts 332°
2026-05-08 04:06 27.65969 -80.89508 16717 ft 352 kts 332°
2026-05-08 04:06 27.68185 -80.90663 16389 ft 350 kts 332°
2026-05-08 04:06 27.70396 -80.91818 16063 ft 349 kts 332°
2026-05-08 04:06 27.72601 -80.92970 15733 ft 349 kts 332°
2026-05-08 04:07 27.74775 -80.94105 15424 ft 348 kts 332°
2026-05-08 04:07 27.76966 -80.95251 15131 ft 347 kts 332°
2026-05-08 04:07 27.79152 -80.96394 14857 ft 346 kts 332°
2026-05-08 04:07 27.81340 -80.97538 14587 ft 346 kts 332°
2026-05-08 04:08 27.83523 -80.98681 14315 ft 346 kts 332°
2026-05-08 04:08 27.85703 -80.99823 14049 ft 345 kts 332°
2026-05-08 04:08 27.87882 -81.00964 13783 ft 345 kts 332°
2026-05-08 04:08 27.90060 -81.02106 13487 ft 344 kts 332°
2026-05-08 04:09 27.92224 -81.03240 13194 ft 342 kts 332°
2026-05-08 04:09 27.94424 -81.04279 12857 ft 342 kts 337°
2026-05-08 04:09 27.96653 -81.05205 12502 ft 341 kts 337°
2026-05-08 04:09 27.98872 -81.06141 12134 ft 339 kts 336°
2026-05-08 04:10 28.01071 -81.07077 11786 ft 336 kts 336°
2026-05-08 04:10 28.03250 -81.08009 11448 ft 333 kts 336°
2026-05-08 04:10 28.05413 -81.08936 11118 ft 330 kts 336°
2026-05-08 04:10 28.07551 -81.09852 10800 ft 325 kts 336°
2026-05-08 04:11 28.09643 -81.10729 10465 ft 314 kts 337°
2026-05-08 04:11 28.11637 -81.11563 10133 ft 305 kts 337°
2026-05-08 04:11 28.13594 -81.12387 9778 ft 296 kts 335°
2026-05-08 04:11 28.15247 -81.13659 9344 ft 283 kts 307°
2026-05-08 04:12 28.16159 -81.15567 8979 ft 271 kts 292°
2026-05-08 04:12 28.16945 -81.17487 8619 ft 265 kts 294°
2026-05-08 04:12 28.17731 -81.19355 8228 ft 261 kts 295°
2026-05-08 04:12 28.18501 -81.21180 7893 ft 254 kts 295°
2026-05-08 04:13 28.19266 -81.22991 7480 ft 251 kts 295°
2026-05-08 04:13 28.20018 -81.24773 7086 ft 249 kts 295°
2026-05-08 04:13 28.20776 -81.26496 6681 ft 246 kts 301°
2026-05-08 04:13 28.22060 -81.27791 6144 ft 248 kts 335°
2026-05-08 04:14 28.23713 -81.28088 5731 ft 243 kts 360°
2026-05-08 04:14 28.25391 -81.28082 5283 ft 240 kts 358°
2026-05-08 04:14 28.27059 -81.28093 4777 ft 238 kts 359°
2026-05-08 04:14 28.28667 -81.28105 4259 ft 226 kts 358°
2026-05-08 04:15 28.30203 -81.28117 3758 ft 215 kts 358°
2026-05-08 04:15 28.31660 -81.28131 3239 ft 205 kts 358°
2026-05-08 04:15 28.33072 -81.28119 2659 ft 201 kts 359°
2026-05-08 04:15 28.34432 -81.28107 2258 ft 189 kts 359°
2026-05-08 04:16 28.35730 -81.28100 1698 ft 183 kts 358°
2026-05-08 04:16 28.36964 -81.28146 1279 ft 173 kts 358°
2026-05-08 04:16 28.38113 -81.28191 999 ft 163 kts 356°
2026-05-08 04:16 28.39235 -81.28193 681 ft 158 kts 358°
2026-05-08 04:17 28.40305 -81.28211 459 ft 151 kts 356°
2026-05-08 04:17 28.41346 -81.28223 219 ft 149 kts 358°
2026-05-08 04:17 28.42360 -81.28233 103 ft 140 kts 356°
2026-05-08 04:17 28.43098 -81.28246 97 ft 73 kts 359°
2026-05-08 04:18 28.43396 -81.28247 99 ft 21 kts 358°
2026-05-08 04:18 28.43532 -81.28314 98 ft 22 kts 311°
2026-05-08 04:18 28.43652 -81.28376 98 ft 20 kts
2026-05-08 04:18 28.43798 -81.28376 99 ft 21 kts 359°
2026-05-08 04:19 28.43871 -81.28407 98 ft 17 kts 295°
2026-05-08 04:19 28.43875 -81.28534 102 ft 15 kts 270°
2026-05-08 04:19 28.43874 -81.28655 103 ft 16 kts 269°
2026-05-08 04:19 28.43873 -81.28793 110 ft 13 kts 269°
2026-05-08 04:20 28.43872 -81.28866 110 ft 14 kts 269°
2026-05-08 04:20 28.43871 -81.28992 110 ft 17 kts 270°
2026-05-08 04:20 28.43871 -81.29141 107 ft 21 kts 269°
2026-05-08 04:20 28.43817 -81.29265 100 ft 18 kts 179°
2026-05-08 04:21 28.43688 -81.29263 102 ft 19 kts 179°
2026-05-08 04:21 28.43567 -81.29276 101 ft 16 kts 225°
2026-05-08 04:21 28.43552 -81.29402 102 ft 15 kts 269°
2026-05-08 04:21 28.43551 -81.29512 102 ft 13 kts 269°
2026-05-08 04:22 28.43550 -81.29602 100 ft 11 kts 270°
2026-05-08 04:22 28.43550 -81.29707 99 ft 14 kts 270°
2026-05-08 04:22 28.43538 -81.29807 99 ft 6 kts 246°
2026-05-08 04:22 28.43536 -81.29811 97 ft 2 kts 231°
2026-05-08 04:23 28.43518 -81.29816 99 ft 5 kts 169°
2026-05-08 04:23 28.43463 -81.29806 98 ft 11 kts 174°
2026-05-08 04:23 28.43365 -81.29804 99 ft 17 kts 179°
2026-05-08 04:23 28.43229 -81.29802 98 ft 22 kts 182°
2026-05-08 04:24 28.43066 -81.29801 97 ft 23 kts 180°
2026-05-08 04:24 28.42912 -81.29799 98 ft 21 kts 179°
2026-05-08 04:24 28.42774 -81.29798 99 ft 19 kts 179°
2026-05-08 04:24 28.42650 -81.29796 98 ft 17 kts 181°
2026-05-08 04:25 28.42583 -81.29865 99 ft 13 kts 223°
2026-05-08 04:25 28.42498 -81.29906 97 ft 14 kts 209°
2026-05-08 04:25 28.42453 -81.29961 97 ft 6 kts 247°
2026-05-08 04:25 28.42438 -81.30000 97 ft 5 kts 257°
2026-05-08 04:26 28.42446 -81.30012 98 ft 2 kts 334°
2026-05-08 04:26 28.42474 -81.30015 98 ft 6 kts 358°
2026-05-08 04:26 28.42488 -81.30016 99 ft 0 kts 358°
2026-05-08 04:26 28.42493 -81.30016 98 ft 3 kts 359°
2026-05-08 04:27 28.42514 -81.30017 98 ft 0 kts 359°